Terminal Aerodrome Forecast
Issued by NWS Pueblo, CO

Home | Current Version | Previous Version | Text Only | Print | Product List | Glossary On
Versions: 1 2 3 4 5 6 7 8 9 10 11 12 13 14 15 16 17 18 19 20 21 22 23 24 25 26 27 28
000
FTUS45 KPUB 300759 AAA
TAFALS
TAF AMD
KALS 300759Z 3008/3106 17007KT P6SM VCSH OVC050
      TEMPO 3008/3010 2SM -SN BR FEW008 BKN020
     FM301000 VRB04KT 4SM BR VCSH SCT010 BKN025
     FM301700 19006KT P6SM VCSH SCT020 BKN050
     FM302000 20007KT 3SM -RASN BR BKN015=

USA.gov is the U.S. government's official web portal to all federal, state and local government web resources and services.